Погода в Кхлонг-Яй

Таиланд     11°46′52″N   102°52′48″E
темп.,
°C
ветер,
м/с
пор.,
м/с
влажн.,
%
обл.,
%
осадки,
мм/ч
давл.,
гПа
погр.,
м
11 мая, вт
вт1101:00+24св119259 0.1 100832
04:00+24св11916 0.0 100728
07:00+25всв118582 0.0 100995
10:00+31ююз216023 0.1 10101039
13:00+31зюз336299 0.4 10081223
16:00+30зюз336858 0.2 1005838
19:00+26зюз118912 0.9 100763
22:00+25ссв11922 0.4 100958
12 мая, ср
ср1201:00+24св11945 0.6 100735
04:00+24св119441 0.1 100728
07:00+25св1189100 0.5 100993
10:00+31юз216552 0.0 10101073
13:00+30зюз227023 0.9 1007846
16:00+30зюз327056 0.3 1005852
19:00+26зюз11882 0.8 100662
22:00+25св11915 0.1 100860
13 мая, чт
чт1301:00+24св11945 0.1 100735
04:00+24св119417 0.0 100627
07:00+25св11885 0.9 100895
10:00+31ююз226015 0.4 1008978
13:00+31зюз326715 0.9 1006922
16:00+30з326614 0.8 1004894
19:00+25з11875 1.9 100671
22:00+25св119157 0.6 100863
14 мая, пт
пт1401:00+24св119475 0.8 100635
04:00+24св119414 0.6 100524
07:00+25всв118836 1.8 100794
10:00+31ююз216627 1.3 1008877
13:00+30зюз227518 3.5 1006819
16:00+30з337181 1.4 1004959
19:00+25зюз129180 4.8 100575
22:00+25всв119396 3.4 100759
15 мая, сб
сб1501:00+24всв119598 3.4 100635
04:00+24всв119591 0.0 100534
07:00+25всв119040 0.1 100789
10:00+31ююз226141 0.3 1008981
13:00+30зюз2272100 2.6 1006860
16:00+29зюз2376100 2.5 1005678
19:00+26ююз019083 4.3 100572
22:00+25ссв11935 0.2 100753